User: anonymous   Login
Location: Unspecified
(0.0000°N, 0.0000°E)
Time: 09:32:42
(UTC+00:00)
Language:

Transit 4B - Orbit

View from above orbital plane
View from above orbital plane
View from above satellite
View from above satellite

Ground track
Ground track

The orbit data is extracted from the following two-line orbital elements,

1   202U 61031A   18023.93834170 +.00000025 +00000-0 +31668-5 0  9990
2   202 032.4367 235.8957 0101426 329.7431 029.7362 13.63511204802222
Epoch (UTC): 23 January 2018 22:31:12
Eccentricity: 0.0101426
inclination: 32.4367°
perigee height: 948 km
apogee height: 1098 km
right ascension of ascending node: 235.8957°
argument of perigee: 329.7431°
revolutions per day: 13.63511204
mean anomaly at epoch: 29.7362°
orbit number at epoch: 80222

The dashed part of the orbit path shows where the satellite is in the earth's shadow,  

DLR